This is the latest recevied weather packets stored in our database for station/object KI4FRU. If no packets are shown the sender has not sent any weather packets the latest 10 day(s).
| Time | Temp. | Humidity | Pressure | Rain* | Wind** | Luminosity | Snow |
|---|---|---|---|---|---|---|---|
| 1777905655 | 17.78° C | 61% | 1056.6 hPa | 0 mm | - | 43 W/m² | - |
| 1777905352 | 17.78° C | 61% | 1056.6 hPa | 0 mm | - | 60 W/m² | - |
| 1777905050 | 17.22° C | 66% | 1056.5 hPa | 0 mm | - | 75 W/m² | - |
| 1777904747 | 17.22° C | 66% | 1056.4 hPa | 0 mm | - | 36 W/m² | - |
| 1777904444 | 16.67° C | 71% | 1056.4 hPa | 0 mm | - | 39 W/m² | - |
| 1777904140 | 16.67° C | 65% | 1056.2 hPa | 0 mm | - | 37 W/m² | - |
| 1777903837 | 16.11° C | 74% | 1056.4 hPa | 0 mm | - | 38 W/m² | - |
| 1777903534 | 15.56° C | 70% | 1056.4 hPa | 0 mm | - | 37 W/m² | - |
| 1777903231 | 15.56° C | 72% | 1056.1 hPa | 0 mm | - | 36 W/m² | - |
| 1777902926 | 15° C | 74% | 1056.1 hPa | 0 mm | - | 20 W/m² | - |
| 1777902624 | 15° C | 76% | 1056.3 hPa | 0 mm | - | 29 W/m² | - |
| 1777902321 | 15° C | 76% | 1056.7 hPa | 0 mm | - | 38 W/m² | - |
| 1777902018 | 14.44° C | 75% | 1056.4 hPa | 0 mm | - | 40 W/m² | - |
| 1777901716 | 14.44° C | 80% | 1056.3 hPa | 0 mm | - | 24 W/m² | - |
| 1777901413 | 13.89° C | 81% | 1056.4 hPa | 0 mm | - | 35 W/m² | - |
| 1777901111 | 13.89° C | 82% | 1056.3 hPa | 0 mm | - | 34 W/m² | - |
| 1777900808 | 13.33° C | 82% | 1056.5 hPa | 0 mm | - | 35 W/m² | - |
| 1777900505 | 12.78° C | 82% | 1056.3 hPa | 0 mm | - | 31 W/m² | - |
| 1777900202 | 12.22° C | 88% | 1056.2 hPa | 0 mm | - | 32 W/m² | - |
| 1777899898 | 11.67° C | 89% | 1056.1 hPa | 0 mm | - | 31 W/m² | - |
| 1777899595 | 11.67° C | 88% | 1056.1 hPa | 0 mm | - | 29 W/m² | - |
| 1777899293 | 11.11° C | 91% | 1056.3 hPa | 0 mm | - | 32 W/m² | - |
| 1777898990 | 10.56° C | 96% | 1056.2 hPa | 0 mm | - | 32 W/m² | - |
| 1777898687 | 10° C | 97% | 1056.3 hPa | 0 mm | - | 29 W/m² | - |
| 1777898384 | 9.44° C | 99% | 1056.2 hPa | 0 mm | - | 29 W/m² | - |
* Rain latest hour (hover to see other rain measurements)
** Current wind speed in m/s (hover to see current wind gust speed)